DW4230 Weather Reports


time (UTC)temp
C
wind
direction
speed
KPH
gust
KPH
rain 1hr
cm
rain 24hr
cm
rain mn
cm
humidity
%
barometer
mb
20260507080023 11 277 8.0 19.3 0.03 0.38 0.03 96 1006.2
20260507074616 11 124 9.7 17.7 0.00 0.36 0.00 96 1005.9
20260507073102 11 124 8.0 14.5 0.00 0.36 0.00 96 1005.7
20260507071521 11 124 9.7 19.3 0.00 0.36 0.00 96 1005.9
20260507070121 11 124 9.7 20.9 0.00 0.36 0.00 96 1006.2
20260507064617 11 124 9.7 17.7 0.00 0.36 0.00 96 1006.2
20260507063026 11 124 4.8 14.5 0.00 0.36 0.00 96 1006.0
20260507061602 11 272 4.8 17.7 0.00 0.36 0.00 96 1006.2
20260507054533 11 282 6.4 19.3 0.00 0.36 0.00 96 1006.7
20260507053025 11 274 9.7 24.1 0.00 0.36 0.00 96 1007.0
20260507051604 11 284 12.9 30.6 0.00 0.36 0.00 96 1007.0
20260507050103 11 264 11.3 25.7 0.00 0.36 0.00 96 1007.2
20260507044600 11 124 16.1 37.0 0.00 0.36 0.00 96 1007.2
20260507043104 11 260 12.9 30.6 0.00 0.36 0.00 95 1007.1
20260507041540 11 274 14.5 30.6 0.00 0.36 0.00 95 1007.3
20260507040034 11 253 17.7 33.8 0.00 0.36 0.36 95 1007.5
20260507034551 11 273 19.3 33.8 0.00 0.36 0.36 95 1007.6
20260507033056 11 124 17.7 33.8 0.00 0.36 0.36 95 1007.6
20260507031618 11 266 17.7 32.2 0.00 0.36 0.36 95 1007.7
20260507030100 11 124 17.7 29.0 0.00 0.36 0.36 95 1007.5
20260507024602 11 273 12.9 27.4 0.00 0.36 0.36 95 1007.5
20260507023100 11 264 14.5 29.0 0.00 0.36 0.36 95 1007.7
20260507021553 12 250 12.9 24.1 0.00 0.36 0.36 95 1007.9
20260507020038 12 124 16.1 29.0 0.00 0.36 0.36 95 1008.1
20260507014605 12 249 11.3 29.0 0.00 0.36 0.36 95 1008.2
20260507013111 12 124 12.9 30.6 0.00 0.36 0.36 95 1008.4
20260507011520 12 255 16.1 29.0 0.03 0.36 0.36 94 1008.5
20260507010004 12 243 12.9 35.4 0.03 0.36 0.36 95 1008.3
20260507004509 12 124 20.9 32.2 0.03 0.36 0.36 94 1008.3
20260507003011 12 124 25.7 41.8 0.03 0.36 0.36 94 1008.1
20260507001504 12 254 20.9 38.6 0.08 0.33 0.33 94 1008.0
20260507000004 12 259 17.7 35.4 0.15 0.33 0.33 94 1008.0
20260506234502 12 210 19.3 40.2 0.23 0.33 0.33 94 1008.0
20260506233104 12 238 16.1 29.0 0.28 0.33 0.33 94 1008.1
20260506231549 12 232 19.3 35.4 0.23 0.25 0.25 93 1007.9
20260506230028 12 207 22.5 40.2 0.18 0.18 0.18 93 1008.2
20260506224530 12 185 19.3 37.0 0.10 0.10 0.10 93 1008.4
20260506223019 12 124 24.1 49.9 0.05 0.05 0.05 92 1008.5
20260506221604 12 232 24.1 38.6 0.03 0.03 0.03 91 1008.7
20260506220007 13 235 22.5 40.2 0.00 0.00 0.00 90 1008.6
20260506214603 13 238 25.7 46.7 0.00 0.00 0.00 90 1008.4
20260506213046 13 211 22.5 37.0 0.00 0.00 0.00 90 1008.6
20260506211611 13 246 22.5 43.5 0.00 0.00 0.00 90 1008.9
20260506210005 13 124 22.5 40.2 0.00 0.00 0.00 89 1009.0
20260506204602 13 231 17.7 37.0 0.00 0.00 0.00 89 1009.0
20260506203108 13 124 24.1 40.2 0.00 0.00 0.00 88 1009.0
20260506201527 13 239 20.9 46.7 0.00 0.00 0.00 87 1009.2
20260506200032 13 270 22.5 38.6 0.00 0.00 0.00 87 1009.2
20260506194546 13 247 19.3 40.2 0.00 0.00 0.00 87 1009.5
20260506193030 13 124 24.1 45.1 0.00 0.00 0.00 86 1009.6
20260506191535 13 124 19.3 35.4 0.00 0.00 0.00 86 1009.7
20260506190039 13 239 19.3 41.8 0.00 0.00 0.00 86 1009.9
20260506184612 14 124 24.1 41.8 0.00 0.00 0.00 85 1009.7
20260506183100 14 124 22.5 48.3 0.00 0.00 0.00 85 1010.2
20260506181505 14 241 22.5 38.6 0.00 0.00 0.00 85 1010.5
20260506180107 14 227 22.5 46.7 0.00 0.00 0.00 85 1010.7
20260506174502 14 268 20.9 41.8 0.00 0.00 0.00 84 1011.2
20260506173006 15 124 22.5 38.6 0.00 0.00 0.00 84 1011.1
20260506171519 15 124 22.5 45.1 0.00 0.00 0.00 84 1011.2
20260506170023 15 124 27.4 41.8 0.00 0.00 0.00 85 1011.3
20260506164537 14 234 24.1 45.1 0.00 0.00 0.00 85 1011.7
20260506163025 14 124 22.5 45.1 0.00 0.00 0.00 85 1011.7
20260506161617 14 124 19.3 32.2 0.00 0.00 0.00 85 1012.0
20260506160113 14 260 19.3 37.0 0.00 0.00 0.00 85 1012.3
20260506154550 14 124 17.7 37.0 0.00 0.00 0.00 85 1012.6
20260506153039 13 272 20.9 41.8 0.00 0.00 0.00 85 1012.7
20260506151554 14 239 19.3 37.0 0.00 0.00 0.00 85 1012.8
20260506150031 14 124 17.7 38.6 0.00 0.00 0.00 84 1012.7
20260506144518 14 250 19.3 33.8 0.00 0.00 0.00 85 1012.7
20260506143015 14 271 14.5 30.6 0.00 0.00 0.00 86 1012.6
20260506141613 13 239 12.9 30.6 0.00 0.00 0.00 85 1012.5
20260506140108 14 124 16.1 35.4 0.00 0.00 0.00 85 1012.6
20260506134600 14 124 19.3 35.4 0.00 0.00 0.00 85 1012.9
20260506133035 14 124 14.5 29.0 0.00 0.00 0.00 86 1012.9
20260506131534 13 124 16.1 30.6 0.00 0.00 0.00 86 1012.8
20260506130013 13 202 17.7 30.6 0.00 0.00 0.00 86 1012.5
20260506124511 13 253 12.9 29.0 0.00 0.00 0.00 87 1012.6
20260506123040 13 124 14.5 35.4 0.00 0.00 0.00 87 1012.6
20260506121503 13 202 16.1 35.4 0.00 0.00 0.00 87 1012.4
20260506120125 13 193 19.3 40.2 0.00 0.00 0.00 88 1012.8
20260506114548 13 264 20.9 33.8 0.00 0.00 0.00 89 1012.9
20260506113110 12 124 22.5 37.0 0.00 0.00 0.00 89 1012.9
20260506111605 13 124 16.1 29.0 0.00 0.00 0.00 89 1012.9
20260506110012 13 124 12.9 25.7 0.00 0.00 0.00 90 1013.1
20260506104504 12 124 12.9 29.0 0.00 0.00 0.00 91 1013.2
20260506103025 12 124 14.5 30.6 0.00 0.00 0.00 92 1012.8
20260506101529 12 263 12.9 24.1 0.00 0.00 0.00 92 1013.0
20260506100054 12 202 14.5 25.7 0.00 0.00 0.00 93 1012.8
20260506094546 12 262 12.9 25.7 0.00 0.00 0.00 92 1012.8
20260506093051 12 124 16.1 30.6 0.00 0.00 0.00 92 1012.8
20260506091532 12 124 16.1 32.2 0.00 0.00 0.00 92 1013.1
20260506090018 12 258 12.9 25.7 0.00 0.00 0.00 92 1013.1
20260506084523 12 260 11.3 24.1 0.00 0.00 0.00 92 1013.2
20260506083041 12 260 12.9 24.1 0.00 0.00 0.00 92 1013.3
20260506081536 12 258 12.9 30.6 0.00 0.00 0.00 92 1013.2